Powrót do katalogu

COSMOS 2251 DEB

AktywnyLEO
NORAD 34883·DEBRIS·🇷🇺 Russia

Wystrzelony Jun 16, 1993 z Plesetsk Cosmodrome

Loading…

Następne Przeloty (najbliższe 24 godziny)

TLE

ŚwieżeSource: Space-Track

Epoka: Sep 14, 2026, 00:55 UTC

1 34883U 93036ACW 26257.03821283  .00011321  00000-0  23457-2 0  9997
2 34883  74.1954 266.4927 0084272   1.2421 358.8937 14.58058622904442

Śledź COSMOS 2251 DEB w czasie rzeczywistym z AllMySat

Download on the App Store